Time,TemperatureF,DewpointF,PressureIn,WindDirection,WindDirectionDegrees,WindSpeedMPH,WindSpeedGustMPH,Humidity,HourlyPrecipIn,Conditions,Clouds,dailyrainin,SoftwareType,DateUTC
2013-11-03 00:06:00,35.8,32.6,30.15,NNE,22,0.0,-999.0,88,-99.99,,,0.00,Acu-Link.com,2013-11-03 05:06:00,
2013-11-03 00:21:00,36.3,33.7,30.15,NNE,22,0.0,-999.0,90,-99.99,,,0.00,Acu-Link.com,2013-11-03 05:21:00,
2013-11-03 00:36:00,35.8,33.2,30.16,NNE,22,0.0,-999.0,90,-99.99,,,0.00,Acu-Link.com,2013-11-03 05:36:00,
2013-11-03 00:51:00,35.2,32.6,30.15,NNE,22,0.0,-999.0,90,-99.99,,,0.00,Acu-Link.com,2013-11-03 05:51:00,
2013-11-03 01:06:00,34.3,31.7,30.15,NNE,22,0.0,-999.0,90,-99.99,,,0.00,Acu-Link.com,2013-11-03 06:06:00,
2013-11-03 01:21:00,35.6,33.2,30.15,NNE,22,0.0,-999.0,91,-99.99,,,0.00,Acu-Link.com,2013-11-03 06:21:00,
2013-11-03 01:36:00,34.3,32.0,30.15,NNE,22,0.0,-999.0,91,-99.99,,,0.00,Acu-Link.com,2013-11-03 06:36:00,
2013-11-03 01:52:00,34.5,32.1,30.15,NNE,22,0.0,-999.0,91,-99.99,,,0.00,Acu-Link.com,2013-11-03 06:52:00,
2013-11-03 01:07:00,34.3,32.0,30.14,NNE,22,0.0,-999.0,91,-99.99,,,0.00,Acu-Link.com,2013-11-03 07:07:00,
2013-11-03 01:22:00,35.8,33.7,30.14,NNE,22,2.2,-999.0,92,-99.99,,,0.00,Acu-Link.com,2013-11-03 07:22:00,
2013-11-03 01:37:00,41.2,34.9,30.14,NNE,22,0.0,-999.0,78,-99.99,,,0.00,Acu-Link.com,2013-11-03 07:37:00,
2013-11-03 01:52:00,40.5,34.5,30.14,NNE,22,1.1,-999.0,79,-99.99,,,0.00,Acu-Link.com,2013-11-03 07:52:00,
2013-11-03 02:08:00,42.1,34.8,30.13,NNE,22,2.2,-999.0,75,-99.99,,,0.00,Acu-Link.com,2013-11-03 08:08:00,
2013-11-03 02:23:00,41.9,34.6,30.13,NNE,22,2.2,-999.0,75,-99.99,,,0.00,Acu-Link.com,2013-11-03 08:23:00,
2013-11-03 02:38:00,41.7,34.4,30.12,NNE,22,1.7,-999.0,75,-99.99,,,0.00,Acu-Link.com,2013-11-03 08:38:00,
2013-11-03 02:53:00,41.9,34.9,30.12,NNE,22,4.7,-999.0,76,-99.99,,,0.00,Acu-Link.com,2013-11-03 08:53:00,
2013-11-03 03:08:00,41.9,34.6,30.12,ESE,112,3.7,-999.0,75,-99.99,,,0.00,Acu-Link.com,2013-11-03 09:08:00,
2013-11-03 03:23:00,40.6,34.3,30.12,ESE,112,2.7,-999.0,78,-99.99,,,0.00,Acu-Link.com,2013-11-03 09:23:00,
2013-11-03 03:38:00,41.0,34.7,30.12,ESE,112,4.7,-999.0,78,-99.99,,,0.00,Acu-Link.com,2013-11-03 09:38:00,
2013-11-03 03:54:00,41.5,34.8,30.12,ESE,112,2.2,-999.0,77,-99.99,,,0.00,Acu-Link.com,2013-11-03 09:54:00,
2013-11-03 04:09:00,40.6,34.3,30.13,SSW,202,2.2,-999.0,78,-99.99,,,0.00,Acu-Link.com,2013-11-03 10:09:00,
2013-11-03 04:24:00,39.6,34.3,30.13,SSW,202,2.2,-999.0,81,-99.99,,,0.00,Acu-Link.com,2013-11-03 10:24:00,
2013-11-03 04:39:00,38.5,33.5,30.13,SSW,202,0.0,-999.0,82,-99.99,,,0.00,Acu-Link.com,2013-11-03 10:39:00,
2013-11-03 04:54:00,37.6,33.5,30.13,SSW,202,0.0,-999.0,85,-99.99,,,0.00,Acu-Link.com,2013-11-03 10:54:00,
2013-11-03 05:10:00,38.7,33.7,30.13,SSW,202,1.1,-999.0,82,-99.99,,,0.00,Acu-Link.com,2013-11-03 11:10:00,
2013-11-03 05:25:00,39.6,34.3,30.13,SSW,202,1.7,-999.0,81,-99.99,,,0.00,Acu-Link.com,2013-11-03 11:25:00,
2013-11-03 05:40:00,40.5,34.8,30.13,SSW,202,2.2,-999.0,80,-99.99,,,0.00,Acu-Link.com,2013-11-03 11:40:00,
2013-11-03 05:55:00,40.5,34.8,30.13,ESE,112,3.2,-999.0,80,-99.99,,,0.00,Acu-Link.com,2013-11-03 11:55:00,
2013-11-03 06:10:00,40.5,34.8,30.13,SSW,202,4.2,-999.0,80,-99.99,,,0.00,Acu-Link.com,2013-11-03 12:10:00,
2013-11-03 06:25:00,40.6,35.2,30.12,SSE,157,3.7,-999.0,81,-99.99,,,0.00,Acu-Link.com,2013-11-03 12:25:00,
2013-11-03 06:40:00,40.1,35.1,30.12,SSE,157,3.2,-999.0,82,-99.99,,,0.00,Acu-Link.com,2013-11-03 12:40:00,
2013-11-03 06:55:00,39.6,34.9,30.12,SSE,157,3.2,-999.0,83,-99.99,,,0.00,Acu-Link.com,2013-11-03 12:55:00,
2013-11-03 07:10:00,39.6,34.9,30.13,SSE,157,3.7,-999.0,83,-99.99,,,0.00,Acu-Link.com,2013-11-03 13:10:00,
2013-11-03 07:26:00,41.4,36.0,30.13,SSE,157,2.7,-999.0,81,-99.99,,,0.00,Acu-Link.com,2013-11-03 13:26:00,
2013-11-03 07:41:00,42.6,36.6,30.13,SSE,157,4.2,-999.0,79,-99.99,,,0.00,Acu-Link.com,2013-11-03 13:41:00,
2013-11-03 07:56:00,43.7,37.3,30.13,SSE,157,3.2,-999.0,78,-99.99,,,0.00,Acu-Link.com,2013-11-03 13:56:00,
2013-11-03 08:11:00,45.1,38.0,30.12,SSW,202,4.2,-999.0,76,-99.99,,,0.00,Acu-Link.com,2013-11-03 14:11:00,
2013-11-03 08:26:00,46.2,38.7,30.13,SSW,202,5.3,-999.0,75,-99.99,,,0.00,Acu-Link.com,2013-11-03 14:26:00,
2013-11-03 08:41:00,48.9,39.9,30.13,SSE,157,4.2,-999.0,71,-99.99,,,0.00,Acu-Link.com,2013-11-03 14:41:00,
2013-11-03 08:56:00,50.5,40.3,30.12,South,180,7.8,-999.0,68,-99.99,,,0.00,Acu-Link.com,2013-11-03 14:56:00,
2013-11-03 09:11:00,51.4,40.4,30.13,South,180,10.9,-999.0,66,-99.99,,,0.00,Acu-Link.com,2013-11-03 15:11:00,
2013-11-03 09:26:00,52.0,40.2,30.13,SE,135,11.9,-999.0,64,-99.99,,,0.00,Acu-Link.com,2013-11-03 15:26:00,
2013-11-03 09:42:00,53.2,40.5,30.12,South,180,9.9,-999.0,62,-99.99,,,0.00,Acu-Link.com,2013-11-03 15:42:00,
2013-11-03 09:57:00,54.3,41.1,30.11,SSE,157,8.9,-999.0,61,-99.99,,,0.00,Acu-Link.com,2013-11-03 15:57:00,
2013-11-03 10:12:00,55.6,41.1,30.11,South,180,6.8,-999.0,58,-99.99,,,0.00,Acu-Link.com,2013-11-03 16:12:00,
2013-11-03 10:27:00,55.0,40.5,30.10,South,180,9.9,-999.0,58,-99.99,,,0.00,Acu-Link.com,2013-11-03 16:27:00,
2013-11-03 10:42:00,57.4,41.4,30.09,SSE,157,13.0,-999.0,55,-99.99,,,0.00,Acu-Link.com,2013-11-03 16:42:00,
2013-11-03 10:57:00,54.9,40.4,30.09,South,180,7.3,-999.0,58,-99.99,,,0.00,Acu-Link.com,2013-11-03 16:57:00,
2013-11-03 11:12:00,57.9,41.8,30.08,South,180,10.4,-999.0,55,-99.99,,,0.00,Acu-Link.com,2013-11-03 17:12:00,
2013-11-03 11:27:00,59.2,42.1,30.07,South,180,11.9,-999.0,53,-99.99,,,0.00,Acu-Link.com,2013-11-03 17:27:00,
2013-11-03 11:42:00,59.0,42.4,30.05,South,180,7.3,-999.0,54,-99.99,,,0.00,Acu-Link.com,2013-11-03 17:42:00,
2013-11-03 11:58:00,59.4,39.7,30.04,SSE,157,10.4,-999.0,48,-99.99,,,0.00,Acu-Link.com,2013-11-03 17:58:00,
2013-11-03 12:13:00,58.8,40.2,30.03,South,180,5.8,-999.0,50,-99.99,,,0.00,Acu-Link.com,2013-11-03 18:13:00,
2013-11-03 12:28:00,60.4,40.6,30.03,SSW,202,8.9,-999.0,48,-99.99,,,0.00,Acu-Link.com,2013-11-03 18:28:00,
2013-11-03 12:43:00,61.0,39.5,30.02,SSW,202,9.4,-999.0,45,-99.99,,,0.00,Acu-Link.com,2013-11-03 18:43:00,
2013-11-03 12:58:00,61.3,40.3,30.00,SSW,202,11.9,-999.0,46,-99.99,,,0.00,Acu-Link.com,2013-11-03 18:58:00,
2013-11-03 13:14:00,61.5,40.5,30.01,SSW,202,9.4,-999.0,46,-99.99,,,0.00,Acu-Link.com,2013-11-03 19:14:00,
2013-11-03 13:29:00,61.3,39.2,30.01,SSW,202,9.9,-999.0,44,-99.99,,,0.00,Acu-Link.com,2013-11-03 19:29:00,
2013-11-03 13:44:00,60.6,40.3,30.00,SW,225,6.8,-999.0,47,-99.99,,,0.00,Acu-Link.com,2013-11-03 19:44:00,
2013-11-03 13:59:00,60.8,40.4,30.00,SSW,202,13.5,-999.0,47,-99.99,,,0.00,Acu-Link.com,2013-11-03 19:59:00,
2013-11-03 14:14:00,60.4,40.6,29.97,South,180,6.3,-999.0,48,-99.99,,,0.00,Acu-Link.com,2013-11-03 20:14:00,
2013-11-03 14:29:00,60.8,40.4,29.97,South,180,4.7,-999.0,47,-99.99,,,0.00,Acu-Link.com,2013-11-03 20:29:00,
2013-11-03 14:44:00,61.2,39.7,29.97,South,180,8.9,-999.0,45,-99.99,,,0.00,Acu-Link.com,2013-11-03 20:44:00,
2013-11-03 14:59:00,60.6,39.1,29.96,SSE,157,13.5,-999.0,45,-99.99,,,0.00,Acu-Link.com,2013-11-03 20:59:00,
2013-11-03 15:14:00,60.4,39.0,29.96,SSW,202,6.3,-999.0,45,-99.99,,,0.00,Acu-Link.com,2013-11-03 21:14:00,
2013-11-03 15:30:00,60.4,39.5,29.95,South,180,9.9,-999.0,46,-99.99,,,0.00,Acu-Link.com,2013-11-03 21:30:00,
2013-11-03 15:45:00,60.8,39.9,29.94,SSW,202,10.4,-999.0,46,-99.99,,,0.00,Acu-Link.com,2013-11-03 21:45:00,
2013-11-03 16:00:00,60.1,40.3,29.94,SSW,202,5.8,-999.0,48,-99.99,,,0.00,Acu-Link.com,2013-11-03 22:00:00,
2013-11-03 16:15:00,59.7,40.5,29.95,SSE,157,8.3,-999.0,49,-99.99,,,0.00,Acu-Link.com,2013-11-03 22:15:00,
2013-11-03 16:30:00,59.5,40.3,29.95,South,180,8.9,-999.0,49,-99.99,,,0.00,Acu-Link.com,2013-11-03 22:30:00,
2013-11-03 16:45:00,59.4,40.2,29.94,SSE,157,8.9,-999.0,49,-99.99,,,0.00,Acu-Link.com,2013-11-03 22:45:00,
2013-11-03 17:00:00,58.8,40.7,29.93,SSE,157,7.8,-999.0,51,-99.99,,,0.00,Acu-Link.com,2013-11-03 23:00:00,
2013-11-03 17:15:00,58.3,41.2,29.92,South,180,6.8,-999.0,53,-99.99,,,0.00,Acu-Link.com,2013-11-03 23:15:00,
2013-11-03 17:30:00,58.5,40.9,29.91,South,180,11.4,-999.0,52,-99.99,,,0.00,Acu-Link.com,2013-11-03 23:30:00,
2013-11-03 17:46:00,58.3,40.8,29.91,South,180,10.9,-999.0,52,-99.99,,,0.00,Acu-Link.com,2013-11-03 23:46:00,
2013-11-03 18:01:00,58.3,40.3,29.94,SSW,202,6.8,-999.0,51,-99.99,,,0.00,Acu-Link.com,2013-11-04 00:01:00,
2013-11-03 18:16:00,57.9,40.4,29.95,South,180,7.3,-999.0,52,-99.99,,,0.00,Acu-Link.com,2013-11-04 00:16:00,
2013-11-03 18:31:00,58.1,40.6,29.93,South,180,7.3,-999.0,52,-99.99,,,0.00,Acu-Link.com,2013-11-04 00:31:00,
2013-11-03 18:46:00,57.6,41.1,29.92,SSE,157,8.9,-999.0,54,-99.99,,,0.00,Acu-Link.com,2013-11-04 00:46:00,
2013-11-03 19:01:00,57.4,41.4,29.92,SSW,202,8.3,-999.0,55,-99.99,,,0.00,Acu-Link.com,2013-11-04 01:01:00,
2013-11-03 19:17:00,57.2,41.6,29.94,South,180,8.9,-999.0,56,-99.99,,,0.00,Acu-Link.com,2013-11-04 01:17:00,
2013-11-03 19:32:00,57.4,41.8,29.95,South,180,10.4,-999.0,56,-99.99,,,0.00,Acu-Link.com,2013-11-04 01:32:00,
2013-11-03 19:47:00,57.2,42.1,29.95,SE,135,10.9,-999.0,57,-99.99,,,0.00,Acu-Link.com,2013-11-04 01:47:00,
2013-11-03 20:02:00,57.2,42.1,29.96,South,180,8.9,-999.0,57,-99.99,,,0.00,Acu-Link.com,2013-11-04 02:02:00,
2013-11-03 20:17:00,56.8,42.2,29.95,South,180,9.4,-999.0,58,-99.99,,,0.00,Acu-Link.com,2013-11-04 02:17:00,
2013-11-03 20:32:00,56.7,42.1,29.93,South,180,8.3,-999.0,58,-99.99,,,0.00,Acu-Link.com,2013-11-04 02:32:00,
2013-11-03 20:47:00,56.3,42.2,29.94,SSE,157,11.4,-999.0,59,-99.99,,,0.00,Acu-Link.com,2013-11-04 02:47:00,
2013-11-03 21:02:00,56.5,42.3,29.92,South,180,11.4,-999.0,59,-99.99,,,0.00,Acu-Link.com,2013-11-04 03:02:00,
2013-11-03 21:17:00,56.5,42.3,29.91,South,180,16.1,-999.0,59,-99.99,,,0.00,Acu-Link.com,2013-11-04 03:17:00,
2013-11-03 21:33:00,56.5,42.3,29.93,SSE,157,4.7,-999.0,59,-99.99,,,0.00,Acu-Link.com,2013-11-04 03:33:00,
2013-11-03 21:48:00,56.1,42.0,29.95,SSE,157,8.3,-999.0,59,-99.99,,,0.00,Acu-Link.com,2013-11-04 03:48:00,
2013-11-03 22:03:00,56.1,42.4,29.94,South,180,7.3,-999.0,60,-99.99,,,0.00,Acu-Link.com,2013-11-04 04:03:00,
2013-11-03 22:18:00,55.8,42.1,29.94,South,180,14.0,-999.0,60,-99.99,,,0.00,Acu-Link.com,2013-11-04 04:18:00,
2013-11-03 22:33:00,55.8,42.6,29.94,South,180,11.9,-999.0,61,-99.99,,,0.00,Acu-Link.com,2013-11-04 04:33:00,
2013-11-03 22:48:00,55.4,42.2,29.93,SSE,157,11.4,-999.0,61,-99.99,,,0.00,Acu-Link.com,2013-11-04 04:48:00,
2013-11-03 23:03:00,55.4,42.2,29.95,SE,135,8.9,-999.0,61,-99.99,,,0.00,Acu-Link.com,2013-11-04 05:03:00,
2013-11-03 23:18:00,55.4,42.6,29.94,SSE,157,7.8,-999.0,62,-99.99,,,0.00,Acu-Link.com,2013-11-04 05:18:00,
2013-11-03 23:33:00,55.2,42.4,29.92,South,180,9.9,-999.0,62,-99.99,,,0.00,Acu-Link.com,2013-11-04 05:33:00,
2013-11-03 23:49:00,55.2,42.4,29.93,SSE,157,7.3,-999.0,62,-99.99,,,0.00,Acu-Link.com,2013-11-04 05:49:00,